Regional Weather Roundup
Issued by NWS

Home | Current Version | Previous Version | Graphics & Text | Print | Product List | Glossary On
Versions: 1 2 3 4 5 6 7 8 9 10 11 12 13 14 15 16 17 18 19 20 21 22 23 24 25 26 27 28 29 30 31 32 33 34 35 36 37 38 39 40 41 42 43 44 45 46 47 48 49 50
000
ASUS43 KLOT 261009
RWRIL

ILLINOIS REGIONAL WEATHER ROUNDUP
NATIONAL WEATHER SERVICE CHICAGO/ROMEOVILLE IL
500 AM CDT WED JUL 26 2017

NOTE: "FAIR" INDICATES FEW OR NO CLOUDS BELOW 12,000 FEET WITH NO
SIGNIFICANT WEATHER AND/OR OBSTRUCTIONS TO VISIBILITY.

* THESE STATIONS ARE NOT UNDER NWS QUALITY CONTROL. THEY ALSO MAY NOT
  REPORT WEATHER SUCH AS PRECIPITATION OR FOG.

ILZ001-002-007-009-015-016-024-261100-
NORTHWEST ILLINOIS

CITY           SKY/WX    TMP DP  RH WIND       PRES   REMARKS
MOLINE         CLOUDY    71  66  84 SE6       30.04F
STERLING*      PTCLDY    66  63  90 SE5       30.07F
SAVANNA*       MOCLDY    67  65  93 S5        30.05S
$$

ILZ003-004-008-010-011-017-018-261100-
NORTH CENTRAL ILLINOIS

CITY           SKY/WX    TMP DP  RH WIND       PRES   REMARKS
ROCKFORD       CLOUDY    67  61  81 S9        30.08F
FREEPORT*      PTCLDY    65  62  90 S6        30.09R
ROCHELLE*      PTCLDY    63  61  95 SE5       30.09F
DE KALB*       PTCLDY    63  60  90 S8        30.09F
PERU*          CLOUDY   N/A N/A N/A S5        30.09F
$$

ILZ005-006-012>014-019>023-261100-
NORTHEAST ILLINOIS

CITY           SKY/WX    TMP DP  RH WIND       PRES   REMARKS
CHICAGO-OHARE  MOCLDY    66  59  78 S8        30.10F
CHICAGO-MIDWAY MOCLDY    69  60  73 S6        30.10F
AURORA         CLOUDY    64  60  87 SE5       30.11F
LANSING*       PTCLDY    65  58  78 CALM      30.12F
JOLIET*        CLOUDY    64  62  91 E5        30.11S
WAUKEGAN       PTCLDY    66  60  81 S6        30.08F
DUPAGE AIRPORT PTCLDY    63  61  93 S6        30.09F
KANKAKEE*      PTCLDY    61  61 100 CALM      30.12F
WHEELING       CLEAR     67  62  84 S7        30.10F
MORRIS*        CLOUDY    63  60  91 CALM      30.09F
ROMEOVILLE*    MOCLDY    63  58  84 S5        30.11F
NORTHERLY ISL    N/A     68  58  70 S5          N/A
$$

LMZ740>746-261100-
SOUTHERN LAKE MICHIGAN

STATION/POSITION SKY/WX   TEMP    WIND        PRES    VSBY  WAVE
                          AIR SEA DIR/SP/G                  HT/PER
                          (F)     (DEG/KT/KT) (MB)    (MI)  (FT/S)
SOUTHERN BUOY              72 71  180/ 17/ 21 1018.4          2/ 4
WILMETTE HARBOR            71 71  190/ 10/ 14   N/A           2/ 4
HARRISON CRIB              71     190/ 16/ 17   N/A
BURNHAM HARBOR             69                   N/A
CALUMET HARBOR             69     180/  5/  6 1019.2F
BURNS HARBOR               68     180/  7/ 13 1020.3S
MICHIGAN CITY              68     160/  9/ 12   N/A
MICHIGAN CITY 6N           69 74  190/ 12/ 16   N/A           1/ 2
ST. JOSEPH                 69 72  200/ 14/ 16 1019.4          1/ 2
$$

ILZ025>027-034>036-040-047-049-050-058-095>099-261100-
WEST-CENTRAL ILLINOIS

CITY           SKY/WX    TMP DP  RH WIND       PRES   REMARKS
QUINCY         PTCLDY    71  68  90 SE7       30.04F
GALESBURG*     CLEAR     68  65  92 SE5       30.07S
MACOMB*        PTCLDY    66  65  97 SE3       30.08S FOG
JACKSONVILLE*  PTCLDY    68  66  93 SE5       30.06F
PITTSFIELD*    PTCLDY    70  69  96 SE3       30.07S
$$

ILZ028>032-037-038-041>044-048-051>054-059>061-261100-
CENTRAL ILLINOIS

CITY           SKY/WX    TMP DP  RH WIND       PRES   REMARKS
PONTIAC        PTCLDY    63  62  97 SE6       30.10F
BLOOMINGTON    PTCLDY    65  61  87 S8        30.11F
DECATUR        CLEAR     65  63  93 E3        30.10S
PEORIA         PTCLDY    70  66  87 SE3       30.08F
LACON*         PTCLDY    65  63  92 CALM      30.07F
LINCOLN*       PTCLDY    66  65  99 CALM      30.08F
SPRINGFIELD    PTCLDY    70  68  93 E7        30.07F
TAYLORVILLE    PTCLDY    69  67  93 SE6       30.08S
$$

ILZ033-039-045-046-055>057-062-063-261100-
EAST-CENTRAL ILLINOIS

CITY           SKY/WX    TMP DP  RH WIND       PRES   REMARKS
CHAMPAIGN      CLOUDY    63  60  90 E3        30.12R
RANTOUL*       CLEAR     65  63  91 CALM      30.12S
MATTOON        CLEAR     67  64  90 SE7       30.10S
PARIS*         PTCLDY    63  62  97 SE3       30.12S
$$

ILZ079-100>102-261100-
SOUTHWEST ILLINOIS

CITY           SKY/WX    TMP DP  RH WIND       PRES   REMARKS
ALTON          CLEAR     72  70  95 E7        30.06F
CAHOKIA*       CLEAR     75  70  84 SE6       30.04F
SPARTA*        CLEAR     73  71  93 SE6       30.06F
$$

ILZ064>066-069>071-074>076-080>082-084>086-088>090-092>094-261100-
SOUTH-CENTRAL ILLINOIS

CITY           SKY/WX    TMP DP  RH WIND       PRES   REMARKS
CARBONDALE     CLEAR     73  73 100 CALM      30.06F
CAIRO*         PTCLDY    73  73 100 CALM      30.07F FOG
EFFINGHAM*     PTCLDY    68  67  99 NE3       30.11R
MARION         CLEAR     77  75  94 CALM      30.07F
MT. VERNON     CLEAR     71  68  90 NE3       30.07F
CENTRALIA*     CLEAR     72  70  93 E5        30.06F
SALEM*         CLEAR     73  68  84 E5        30.08S
METROPOLIS*    CLEAR     73  72  99 CALM      30.09S FOG
$$

ILZ067-068-072-073-078-083-087-091-261100-
SOUTHEAST ILLINOIS

CITY           SKY/WX    TMP DP  RH WIND       PRES   REMARKS
LAWRENCEVILLE  PTCLDY    68  66  93 E5        30.10F
FLORA*         PTCLDY    71  68  89 E3        30.08F
FAIRFIELD*     PTCLDY    71  68  92 CALM      30.07F
HARRISBURG*    CLEAR     72  71  98 CALM      30.08F
ROBINSON*      PTCLDY    64  64  97 CALM      30.11S
CARMI*         CLEAR     68  68  99 CALM      30.07F
$$

ABBREVIATIONS USED IN REMARKS
   TC - TEMPERATURE IN CELSIUS
  WCI - WIND CHILL INDEX
   HX - HEAT INDEX
  VSB - VISIBILITY
$$





USA.gov is the U.S. government's official web portal to all federal, state and local government web resources and services.